map of TKF home
Great Circle Mapper logo
TKF - Airport
Location
City:  Truckee, California, United States
Name:Truckee-Tahoe Airport
ICAO / IATA:KTRK / TKF
FAA:TRK

Details
Type:Airport (Airfield)
Use:Public/Civil
Latitude:3919'12"N (39.320042)
Longitude:12008'22"W (-120.139562)
Datum:WGS 1984
Elevation:5901 ft (1799 m)
Variation:13.68E (WMM2015 magnetic declination)
-0.10 annual change
Runways:2
Longest:7000 × 100 ft (2134 × 30.5 m), paved

Time
Time Zone:UTC-8 (DST-7)
Local Time:

Weather
METAR:KTRK 301750Z 00000KT 10SM SKC 25/03 A3038 RMK NOSPECI
TAF:KTRK 301720Z 3018/3118 VRB03KT P6SM SKC
FM302100 14008KT P6SM SCT120
FM302300 25008KT P6SM SCT100
FM310300 VRB03KT P6SM BKN120

Related Locations
Nearby:
Farthest:FTU: 11197 mi / 18020 km
Tolagnaro [Maurillac (Fort Dauphin)], MG

Find:

   beyond  
but within

Other Information
Maps:
NOTAMs:
Links:
Sources:

  
flag of United States
flag of California
  

If YOU Fly, We Can't

Airport Diagram

Airport diagram for TKF

Airport diagram PDF

Sectional Chart

Flight Planning
at skyvector.com

Satellite Image

Google Maps Satellite view

 

Copyright © 2004-2015 Karl L. Swartz. All rights reserved.
The Great Circle Mapper name and logo are trademarks of the Great Circle Mapper.
All other trademarks mentioned herein belong to their respective owners.
Please see credits for attibutions and further copyright information.

  Follow gcmap on Facebook Follow gcmap on Twitter Follow gcmap on Google+

hCard Microformat

Geo Microformat